カタログに戻る

STARLINK-6117

運用中通信VLEO
NORAD 56130·PAYLOAD·🇺🇸 United States

打ち上げ Mar 29, 2023 から Cape Canaveral Space Force Station

Loading…

次のパス (今後24時間)

TLE

最新Source: CelesTrak SupGP

元期: Sep 14, 2026, 22:23 UTC

1 56130C 23046AP  26257.93312500 -.00032897  00000+0 -11918-2 0  2574
2 56130  43.0001 158.2030 0001335 264.5851  71.1088 15.27588608    13

AllMySatでSTARLINK-6117をリアルタイム追跡

Download on the App Store